Location: Bad Salzschlirf
(50.3750°N, 9.3000°E)
Time: 09:02:04
(UTC+01:00)

ISS - Pass Details

Date: 08 December 2018
Orbit: 401 x 408 km, 51.6° (Epoch: 12 December)

Event Time Altitude Azimuth Distance (km) Brightness Sun altitude
Rises 19:11:40 0° 285° (WNW) 2,318 1.1 -26.3°
Reaches altitude 10° 19:13:55 10° 274° (W) 1,456 0.0 -26.6°
Enters shadow 19:15:34 22° 250° (WSW) 950 -1.3 -26.9°
